Location: Casa Rossa
(45.2389°N, 12.2056°E)
Time: 04:26:04
(UTC+00:00)

Lacrosse 5 - Pass Details

Date: 14 July 2020
Orbit: 717 x 720 km, 57.0° (Epoch: 09 August)

Event Time Altitude Azimuth Distance (km) Brightness Sun altitude
Exits shadow 00:10:41 25° 260° (W) 1,413 3.1 -22.0°
Maximum altitude 00:13:23 53° 326° (NNW) 882 2.5 -21.9°
Drops below altitude 10° 00:18:21 10° 44° (NE) 2,206 5.2 -21.7°
Sets 00:20:48 0° 49° (NE) 3,129 6.1 -21.6°
